﻿_id,日時,平均風速(m/s),平均風向,最大瞬間風速(m/s),最大風速時風向,気温(℃),湿度(%),10分間移動積算雨量(mm),1時間移動積算雨量(mm),日雨量(mm),累計雨量(mm),日射(日積算)(MJ/m2),日照(日積算)(min),現地気圧(hPa),海面気圧(hPa)
1,2021-08-16T00:00:00,1.1,北東,2.7,北東,22,95.7,0,0,38.5,276,15.38,303,1002,1015.5
2,2021-08-16T00:01:00,1,北東,2.5,北北東,22,95.8,0,0,0,276,0,0,1002,1015.5
3,2021-08-16T00:02:00,1,北東,2.5,北北東,22.1,95.8,0,0,0,276,0,0,1001.9,1015.4
4,2021-08-16T00:03:00,1,北東,2.5,北北東,22,95.8,0,0,0,276,0,0,1001.9,1015.4
5,2021-08-16T00:04:00,1,北東,2.6,北東,21.9,95.8,0,0,0,276,0,0,1001.8,1015.3
6,2021-08-16T00:05:00,1.1,北東,2.9,北東,21.9,95.7,0,0,0,276,0,0,1001.9,1015.4
7,2021-08-16T00:06:00,1.3,北東,2.9,北東,21.9,95.9,0,0,0,276,0,0,1001.9,1015.4
8,2021-08-16T00:07:00,1.4,北東,3,北北東,22.1,96.1,0,0,0,276,0,0,1001.9,1015.4
9,2021-08-16T00:08:00,1.7,北東,3.2,北北東,22,96.1,0,0,0,276,0,0,1001.9,1015.4
10,2021-08-16T00:09:00,1.8,北東,3.2,北北東,22,95.9,0,0,0,276,0,0,1001.9,1015.4
11,2021-08-16T00:10:00,1.9,北東,3.2,北北東,22.1,95.9,0,0,0,276,0,0,1001.9,1015.4
12,2021-08-16T00:11:00,2.1,北東,3.2,北北東,22.1,95.9,0,0,0,276,0,0,1001.9,1015.4
13,2021-08-16T00:12:00,2.2,北東,3.2,北北東,22,95.7,0,0,0,276,0,0,1001.9,1015.4
14,2021-08-16T00:13:00,2.2,北東,3.2,北北東,22,95.6,0,0,0,276,0,0,1001.9,1015.4
15,2021-08-16T00:14:00,2.3,北東,3.2,北北東,22,95.6,0,0,0,276,0,0,1002,1015.5
16,2021-08-16T00:15:00,2.3,北東,3.2,北北東,21.9,95.7,0,0,0,276,0,0,1001.9,1015.4
17,2021-08-16T00:16:00,2.3,北東,3.2,北北東,22,95.8,0,0,0,276,0,0,1001.9,1015.4
18,2021-08-16T00:17:00,2.3,北東,3.2,北北東,22,95.7,0,0,0,276,0,0,1001.9,1015.4
19,2021-08-16T00:18:00,2.2,北東,3.2,北東,22,95.8,0,0,0,276,0,0,1001.9,1015.4
20,2021-08-16T00:19:00,2.2,北東,3.2,北東,21.9,95.6,0,0,0,276,0,0,1001.9,1015.4
21,2021-08-16T00:20:00,2.1,北東,3.2,北東,21.9,95.6,0,0,0,276,0,0,1001.9,1015.4
22,2021-08-16T00:21:00,1.9,北東,3.2,北東,21.9,95.7,0,0,0,276,0,0,1001.9,1015.4
23,2021-08-16T00:22:00,1.8,北東,3.2,北東,21.9,95.7,0,0,0,276,0,0,1001.9,1015.4
24,2021-08-16T00:23:00,1.7,北東,3.1,北東,21.8,95.8,0,0,0,276,0,0,1001.9,1015.4
25,2021-08-16T00:24:00,1.6,北東,3.1,北東,21.8,95.8,0,0,0,276,0,0,1001.9,1015.4
26,2021-08-16T00:25:00,1.5,北東,2.8,北東,21.7,95.9,0,0,0,276,0,0,1001.9,1015.4
27,2021-08-16T00:26:00,1.4,北東,2.4,北北東,21.8,96,0,0,0,276,0,0,1002,1015.5
28,2021-08-16T00:27:00,1.3,北東,2.3,北東,21.8,96,0,0,0,276,0,0,1002,1015.5
29,2021-08-16T00:28:00,1.2,北東,2.3,北東,21.9,96.1,0,0,0,276,0,0,1002,1015.5
30,2021-08-16T00:29:00,1.2,北東,2.1,北東,21.9,96.3,0,0,0,276,0,0,1002.1,1015.6
31,2021-08-16T00:30:00,1.2,北東,2.1,北東,21.9,96.2,0,0,0,276,0,0,1002,1015.5
32,2021-08-16T00:31:00,1.3,北東,2.3,北東,21.9,96.1,0,0,0,276,0,0,1002,1015.5
33,2021-08-16T00:32:00,1.3,北東,2.7,北東,21.9,96.1,0,0,0,276,0,0,1002,1015.5
34,2021-08-16T00:33:00,1.5,北東,2.7,北東,22.1,96.3,0,0,0,276,0,0,1002,1015.5
35,2021-08-16T00:34:00,1.5,北東,2.7,北東,21.9,96.1,0,0,0,276,0,0,1002,1015.5
36,2021-08-16T00:35:00,1.5,北東,2.7,北東,21.8,95.7,0,0,0,276,0,0,1002,1015.5
37,2021-08-16T00:36:00,1.6,北東,2.7,北東,21.7,95.7,0,0,0,276,0,0,1002,1015.5
38,2021-08-16T00:37:00,1.7,北東,2.7,北東,21.7,95.8,0,0,0,276,0,0,1002,1015.5
39,2021-08-16T00:38:00,1.7,北東,2.7,北東,21.7,95.9,0,0,0,276,0,0,1002,1015.5
40,2021-08-16T00:39:00,1.6,北東,2.7,北東,21.7,96.1,0,0,0,276,0,0,1002,1015.5
41,2021-08-16T00:40:00,1.5,北東,2.7,北東,21.8,96.2,0,0,0,276,0,0,1002,1015.5
42,2021-08-16T00:41:00,1.3,北東,2.7,北東,21.9,96.3,0,0,0,276,0,0,1002,1015.5
43,2021-08-16T00:42:00,1.2,北北東,2.6,北東,21.7,96.2,0,0,0,276,0,0,1002,1015.5
44,2021-08-16T00:43:00,1,北北東,2.3,北東,21.7,96.1,0,0,0,276,0,0,1002,1015.5
45,2021-08-16T00:44:00,0.9,北北東,2.3,北東,21.7,96.1,0,0,0,276,0,0,1001.9,1015.4
46,2021-08-16T00:45:00,0.9,北北東,2.3,北東,21.7,96.2,0,0,0,276,0,0,1001.9,1015.4
47,2021-08-16T00:46:00,0.8,北北東,2.3,北東,21.7,96.3,0,0,0,276,0,0,1001.9,1015.4
48,2021-08-16T00:47:00,0.7,北北東,2.1,北北東,21.7,96.3,0,0,0,276,0,0,1001.9,1015.4
49,2021-08-16T00:48:00,0.6,北北東,2.1,北北東,21.7,96.3,0,0,0,276,0,0,1001.9,1015.4
50,2021-08-16T00:49:00,0.6,北北東,2.1,北北東,21.7,96.3,0,0,0,276,0,0,1002,1015.5
51,2021-08-16T00:50:00,0.7,北東,2.1,北北東,21.6,96.2,0,0,0,276,0,0,1002,1015.5
52,2021-08-16T00:51:00,0.8,北東,2.1,北北東,21.7,96.4,0,0,0,276,0,0,1001.9,1015.4
53,2021-08-16T00:52:00,1,北東,2.3,北北東,21.7,96.4,0,0,0,276,0,0,1001.9,1015.4
54,2021-08-16T00:53:00,1.2,北東,2.4,北東,21.7,96.4,0,0,0,276,0,0,1001.9,1015.4
55,2021-08-16T00:54:00,1.2,北東,2.5,北東,21.7,96.3,0,0,0,276,0,0,1001.8,1015.3
56,2021-08-16T00:55:00,1.3,北東,2.6,北東,21.7,96.4,0,0,0,276,0,0,1001.8,1015.3
57,2021-08-16T00:56:00,1.4,北東,2.6,北東,21.7,96.3,0,0,0,276,0,0,1001.8,1015.3
58,2021-08-16T00:57:00,1.6,北東,2.6,北東,21.6,96.3,0,0,0,276,0,0,1001.8,1015.3
59,2021-08-16T00:58:00,1.7,北東,2.6,北東,21.7,96.2,0,0,0,276,0,0,1001.8,1015.3
60,2021-08-16T00:59:00,1.7,北東,2.6,北東,21.8,96.4,0,0,0,276,0,0,1001.8,1015.3
61,2021-08-16T01:00:00,1.8,北東,2.6,北東,21.8,96.4,0,0,0,276,0,0,1001.8,1015.3
62,2021-08-16T01:01:00,1.9,北東,2.6,北東,21.7,96.3,0,0,0,276,0,0,1001.7,1015.2
63,2021-08-16T01:02:00,1.9,北東,2.9,北東,21.7,96.3,0,0,0,276,0,0,1001.7,1015.2
64,2021-08-16T01:03:00,1.9,北東,2.9,北東,21.7,96.3,0,0,0,276,0,0,1001.7,1015.2
65,2021-08-16T01:04:00,1.8,北東,2.9,北東,21.6,96,0,0,0,276,0,0,1001.7,1015.2
66,2021-08-16T01:05:00,1.8,北東,2.9,北東,21.5,96,0,0,0,276,0,0,1001.7,1015.2
67,2021-08-16T01:06:00,1.7,北東,2.9,北東,21.5,96.1,0,0,0,276,0,0,1001.7,1015.2
68,2021-08-16T01:07:00,1.7,北東,2.9,北東,21.5,96.3,0,0,0,276,0,0,1001.8,1015.3
69,2021-08-16T01:08:00,1.7,北東,2.9,北東,21.5,96.3,0,0,0,276,0,0,1001.8,1015.3
70,2021-08-16T01:09:00,1.6,北東,2.9,北東,21.5,96.4,0,0,0,276,0,0,1001.8,1015.3
71,2021-08-16T01:10:00,1.6,北東,2.9,北東,21.6,96.6,0,0,0,276,0,0,1001.8,1015.3
72,2021-08-16T01:11:00,1.6,北東,2.9,北東,21.7,96.7,0,0,0,276,0,0,1001.8,1015.3
73,2021-08-16T01:12:00,1.6,北東,2.8,北北東,21.6,96.6,0,0,0,276,0,0,1001.8,1015.3
74,2021-08-16T01:13:00,1.7,北東,2.8,北北東,21.7,96.5,0,0,0,276,0,0,1001.8,1015.3
75,2021-08-16T01:14:00,1.7,北東,2.8,北北東,21.6,96.4,0,0,0,276,0,0,1001.8,1015.3
76,2021-08-16T01:15:00,1.7,北東,2.8,北北東,21.5,96.4,0,0,0,276,0,0,1001.8,1015.3
77,2021-08-16T01:16:00,1.9,北東,2.8,北北東,21.5,96.4,0,0,0,276,0,0,1001.8,1015.3
78,2021-08-16T01:17:00,1.9,北東,2.8,北北東,21.5,96.4,0,0,0,276,0,0,1001.8,1015.3
79,2021-08-16T01:18:00,2,北東,2.8,北北東,21.6,96.5,0,0,0,276,0,0,1001.8,1015.3
80,2021-08-16T01:19:00,2,北東,2.8,北北東,21.5,96.5,0,0,0,276,0,0,1001.8,1015.3
81,2021-08-16T01:20:00,2.1,北東,2.8,北東,21.5,96.4,0,0,0,276,0,0,1001.9,1015.4
82,2021-08-16T01:21:00,2,北東,2.8,北東,21.5,96.4,0,0,0,276,0,0,1001.9,1015.4
83,2021-08-16T01:22:00,2,北東,2.8,北東,21.5,96.4,0,0,0,276,0,0,1001.9,1015.4
84,2021-08-16T01:23:00,2,北東,2.8,北東,21.5,96.5,0,0,0,276,0,0,1001.9,1015.4
85,2021-08-16T01:24:00,1.9,北東,2.8,北東,21.5,96.4,0,0,0,276,0,0,1001.9,1015.4
86,2021-08-16T01:25:00,1.8,北東,2.8,北東,21.4,96.5,0,0,0,276,0,0,1001.9,1015.4
87,2021-08-16T01:26:00,1.8,北東,2.8,北東,21.4,96.4,0,0,0,276,0,0,1001.9,1015.4
88,2021-08-16T01:27:00,1.7,北東,2.8,北東,21.4,96.5,0,0,0,276,0,0,1001.9,1015.4
89,2021-08-16T01:28:00,1.6,北東,2.7,北東,21.4,96.5,0,0,0,276,0,0,1001.9,1015.4
90,2021-08-16T01:29:00,1.6,北東,2.6,北東,21.4,96.7,0,0,0,276,0,0,1001.9,1015.4
91,2021-08-16T01:30:00,1.4,北東,2.5,北東,21.5,96.7,0,0,0,276,0,0,1001.9,1015.4
92,2021-08-16T01:31:00,1.3,北東,2.5,北東,21.5,96.8,0,0,0,276,0,0,1001.9,1015.4
93,2021-08-16T01:32:00,1.1,北北東,2.2,北東,21.5,96.8,0,0,0,276,0,0,1001.9,1015.4
94,2021-08-16T01:33:00,1,北北東,2.2,北東,21.5,96.8,0,0,0,276,0,0,1001.9,1015.4
95,2021-08-16T01:34:00,1,北,2.2,北東,21.5,96.8,0,0,0,276,0,0,1002,1015.5
96,2021-08-16T01:35:00,0.9,北,2.2,北東,21.5,96.7,0,0,0,276,0,0,1002,1015.5
97,2021-08-16T01:36:00,0.8,北,2.2,北東,21.4,96.6,0,0,0,276,0,0,1002,1015.5
98,2021-08-16T01:37:00,0.8,北北西,2.2,北東,21.4,96.6,0,0,0,276,0,0,1002,1015.5
99,2021-08-16T01:38:00,0.7,北北西,2.1,北東,21.4,96.6,0,0,0,276,0,0,1002,1015.5
100,2021-08-16T01:39:00,0.6,北北西,1.2,北北東,21.5,96.6,0,0,0,276,0,0,1001.9,1015.4
101,2021-08-16T01:40:00,0.5,北北西,1.1,北,21.4,96.6,0,0,0,276,0,0,1002,1015.5
102,2021-08-16T01:41:00,0.5,北北西,1.1,北,21.3,96.5,0,0,0,276,0,0,1002,1015.5
103,2021-08-16T01:42:00,0.5,北西,1.1,北,21.3,96.5,0,0,0,276,0,0,1002,1015.5
104,2021-08-16T01:43:00,0.5,北西,1.4,北西,21.4,96.6,0,0,0,276,0,0,1002,1015.5
105,2021-08-16T01:44:00,0.5,北西,1.4,北西,21.5,96.9,0,0,0,276,0,0,1002,1015.5
106,2021-08-16T01:45:00,0.5,北西,1.4,北西,21.4,96.7,0,0,0,276,0,0,1002,1015.5
107,2021-08-16T01:46:00,0.4,北北西,1.4,北西,21.4,96.6,0,0,0,276,0,0,1002,1015.5
108,2021-08-16T01:47:00,0.5,北北西,1.4,北西,21.4,96.7,0,0,0,276,0,0,1001.9,1015.4
109,2021-08-16T01:48:00,0.5,北北西,1.4,北西,21.4,96.6,0,0,0,276,0,0,1001.9,1015.4
110,2021-08-16T01:49:00,0.5,北北西,1.4,北西,21.3,96.6,0,0,0,276,0,0,1001.9,1015.4
111,2021-08-16T01:50:00,0.5,北北西,1.4,北西,21.3,96.6,0,0,0,276,0,0,1001.9,1015.4
112,2021-08-16T01:51:00,0.5,北北西,1.4,北西,21.3,96.6,0,0,0,276,0,0,1001.9,1015.4
113,2021-08-16T01:52:00,0.6,北北西,1.4,北西,21.2,96.6,0,0,0,276,0,0,1001.9,1015.5
114,2021-08-16T01:53:00,0.5,北北西,1.3,北東,21.2,96.6,0,0,0,276,0,0,1001.9,1015.5
115,2021-08-16T01:54:00,0.5,北,1.3,北東,21.2,96.7,0,0,0,276,0,0,1001.9,1015.5
116,2021-08-16T01:55:00,0.5,北,1.3,北東,21.2,96.8,0,0,0,276,0,0,1001.9,1015.5
117,2021-08-16T01:56:00,0.5,北北西,1.3,北東,21.2,97,0,0,0,276,0,0,1001.9,1015.5
118,2021-08-16T01:57:00,0.5,北北西,1.3,北東,21.3,97.1,0,0,0,276,0,0,1001.9,1015.4
119,2021-08-16T01:58:00,0.4,北北西,1.2,北西,21.3,97.1,0,0,0,276,0,0,1001.9,1015.4
120,2021-08-16T01:59:00,0.4,北北西,1.2,北西,21.3,97.1,0,0,0,276,0,0,1002,1015.5
121,2021-08-16T02:00:00,0.4,北北西,1.2,北西,21.4,97.1,0,0,0,276,0,0,1002,1015.5
122,2021-08-16T02:01:00,0.4,北北西,1.2,北西,21.2,96.9,0,0,0,276,0,0,1002,1015.6
123,2021-08-16T02:02:00,0.4,北北西,1.1,西北西,21.2,96.9,0,0,0,276,0,0,1002,1015.6
124,2021-08-16T02:03:00,0.5,北北西,1.4,北東,21.3,97.1,0,0,0,276,0,0,1002,1015.5
125,2021-08-16T02:04:00,0.5,北北西,1.4,北東,21.2,97,0,0,0,276,0,0,1002,1015.6
126,2021-08-16T02:05:00,0.6,北北西,1.6,北,21.3,97,0,0,0,276,0,0,1002,1015.5
127,2021-08-16T02:06:00,0.6,北北西,1.6,北,21.2,96.9,0,0,0,276,0,0,1002,1015.6
128,2021-08-16T02:07:00,0.6,北,1.6,北,21.2,96.9,0,0,0,276,0,0,1002,1015.6
129,2021-08-16T02:08:00,0.6,北,1.6,北,21.1,97,0,0,0,276,0,0,1002,1015.6
130,2021-08-16T02:09:00,0.7,北,1.6,北,21.1,96.9,0,0,0,276,0,0,1002,1015.6
131,2021-08-16T02:10:00,0.7,北北東,1.6,北,21.1,97,0,0,0,276,0,0,1002,1015.6
132,2021-08-16T02:11:00,0.8,北北東,1.7,北北東,21.1,97,0,0,0,276,0,0,1002,1015.6
133,2021-08-16T02:12:00,0.8,北北東,1.7,北北東,21.1,97,0,0,0,276,0,0,1002.1,1015.7
134,2021-08-16T02:13:00,0.7,北北東,1.7,北北東,21,97,0,0,0,276,0,0,1002.1,1015.7
135,2021-08-16T02:14:00,0.7,北北東,1.7,北北東,21.2,97.1,0,0,0,276,0,0,1002.1,1015.7
136,2021-08-16T02:15:00,0.6,北北東,1.7,北北東,21.2,97.2,0,0,0,276,0,0,1002.1,1015.7
137,2021-08-16T02:16:00,0.6,北北東,1.8,北東,21.1,97.2,0,0,0,276,0,0,1002.1,1015.7
138,2021-08-16T02:17:00,0.6,北北東,1.8,北東,21.1,97.1,0,0,0,276,0,0,1002.1,1015.7
139,2021-08-16T02:18:00,0.6,北北東,1.8,北東,21.1,97.1,0,0,0,276,0,0,1002.1,1015.7
140,2021-08-16T02:19:00,0.5,北北東,1.8,北東,21.2,97.2,0,0,0,276,0,0,1002.1,1015.7
141,2021-08-16T02:20:00,0.5,北北東,1.8,北東,21.2,97.3,0,0,0,276,0,0,1002.1,1015.7
142,2021-08-16T02:21:00,0.6,北北東,2.1,北北東,21.2,97.3,0,0,0,276,0,0,1002.1,1015.7
143,2021-08-16T02:22:00,0.7,北北東,2.1,北北東,21.3,97.4,0,0,0,276,0,0,1002.1,1015.7
144,2021-08-16T02:23:00,0.9,北北東,2.1,北北東,21.3,97.4,0,0,0,276,0,0,1002.1,1015.7
145,2021-08-16T02:24:00,1,北北東,2.3,北東,21.4,97.3,0,0,0,276,0,0,1002.1,1015.6
146,2021-08-16T02:25:00,1.1,北北東,2.3,北東,21.4,97.3,0,0,0,276,0,0,1002.2,1015.7
147,2021-08-16T02:26:00,1.2,北北東,2.3,北東,21.4,97.1,0,0,0,276,0,0,1002.2,1015.7
148,2021-08-16T02:27:00,1.2,北北東,2.3,北東,21.5,97.1,0,0,0,276,0,0,1002.1,1015.6
149,2021-08-16T02:28:00,1.3,北北東,2.3,北東,21.4,96.9,0,0,0,276,0,0,1002.2,1015.7
150,2021-08-16T02:29:00,1.4,北北東,2.3,北東,21.4,96.7,0,0,0,276,0,0,1002.1,1015.6
151,2021-08-16T02:30:00,1.4,北北東,2.3,北東,21.3,96.6,0,0,0,276,0,0,1002.2,1015.8
152,2021-08-16T02:31:00,1.3,北北東,2.3,北東,21.3,96.4,0,0,0,276,0,0,1002.1,1015.7
153,2021-08-16T02:32:00,1.2,北北東,2.3,北東,21.2,96.4,0,0,0,276,0,0,1002.1,1015.7
154,2021-08-16T02:33:00,1.1,北北東,2.3,北東,21.2,96.3,0,0,0,276,0,0,1002.1,1015.7
155,2021-08-16T02:34:00,1.1,北北東,2.3,北,21.2,96.5,0,0,0,276,0,0,1002.1,1015.7
156,2021-08-16T02:35:00,1.1,北北東,2.3,北,21.3,96.5,0,0,0,276,0,0,1002.1,1015.7
157,2021-08-16T02:36:00,1.1,北北東,2.3,北,21.3,96.7,0,0,0,276,0,0,1002.1,1015.7
158,2021-08-16T02:37:00,1.1,北北東,2.4,北東,21.3,96.6,0,0,0,276,0,0,1002,1015.5
159,2021-08-16T02:38:00,1.2,北東,2.5,北東,21.4,96.7,0,0,0,276,0,0,1002,1015.5
160,2021-08-16T02:39:00,1.3,北東,2.5,北東,21.4,96.7,0,0,0,276,0,0,1002.1,1015.6
161,2021-08-16T02:40:00,1.4,北東,2.5,北東,21.4,96.6,0,0,0,276,0,0,1002.1,1015.6
162,2021-08-16T02:41:00,1.4,北北東,2.5,北東,21.3,96.5,0,0,0,276,0,0,1002.1,1015.7
163,2021-08-16T02:42:00,1.5,北北東,2.5,北東,21.4,96.5,0,0,0,276,0,0,1002.1,1015.6
164,2021-08-16T02:43:00,1.6,北北東,2.5,北東,21.5,96.6,0,0,0,276,0,0,1002.1,1015.6
165,2021-08-16T02:44:00,1.6,北北東,2.6,北北東,21.5,96.6,0,0,0,276,0,0,1002.1,1015.6
166,2021-08-16T02:45:00,1.7,北北東,2.9,北北東,21.4,96.3,0,0,0,276,0,0,1002.1,1015.6
167,2021-08-16T02:46:00,1.9,北北東,3.3,北,21.4,96.2,0,0,0,276,0,0,1002.1,1015.6
168,2021-08-16T02:47:00,1.9,北北東,3.3,北,21.3,96.1,0,0,0,276,0,0,1002.1,1015.7
169,2021-08-16T02:48:00,2,北北東,3.3,北,21.4,96.3,0,0,0,276,0,0,1002.1,1015.6
170,2021-08-16T02:49:00,2,北北東,3.3,北,21.4,96.3,0,0,0,276,0,0,1002.1,1015.6
171,2021-08-16T02:50:00,2,北北東,3.3,北,21.5,96.3,0,0,0,276,0,0,1002.1,1015.6
172,2021-08-16T02:51:00,2.1,北北東,3.3,北,21.4,96.3,0,0,0,276,0,0,1002.1,1015.6
173,2021-08-16T02:52:00,2.1,北北東,3.3,北,21.3,96,0,0,0,276,0,0,1002.1,1015.7
174,2021-08-16T02:53:00,2.1,北北東,3.3,北,21.4,96.2,0,0,0,276,0,0,1002.1,1015.6
175,2021-08-16T02:54:00,2.2,北北東,3.3,北,21.3,96.1,0,0,0,276,0,0,1002.2,1015.8
176,2021-08-16T02:55:00,2.1,北北東,3.3,北,21.3,96,0,0,0,276,0,0,1002.2,1015.8
177,2021-08-16T02:56:00,2,北東,3.3,北北東,21.3,96.1,0,0,0,276,0,0,1002.2,1015.8
178,2021-08-16T02:57:00,1.9,北東,3.2,北北東,21.2,96,0,0,0,276,0,0,1002.2,1015.8
179,2021-08-16T02:58:00,1.9,北東,3.2,北北東,21.2,96,0,0,0,276,0,0,1002.3,1015.9
180,2021-08-16T02:59:00,1.8,北東,2.7,北東,21.2,96.1,0,0,0,276,0,0,1002.3,1015.9
181,2021-08-16T03:00:00,1.8,北東,2.7,北東,21.2,96.2,0,0,0,276,0,0,1002.3,1015.9
182,2021-08-16T03:01:00,1.7,北東,2.6,北東,21.2,96.3,0,0,0,276,0,0,1002.3,1015.9
183,2021-08-16T03:02:00,1.6,北東,2.4,北東,21.2,96.4,0,0,0,276,0,0,1002.3,1015.9
184,2021-08-16T03:03:00,1.6,北東,2.4,北東,21.1,96.4,0,0,0,276,0,0,1002.3,1015.9
185,2021-08-16T03:04:00,1.5,北東,2.3,北東,21.2,96.5,0,0,0,276,0,0,1002.4,1016
186,2021-08-16T03:05:00,1.5,北東,2.3,北東,21.2,96.6,0,0,0,276,0,0,1002.4,1016
187,2021-08-16T03:06:00,1.4,北東,2.3,北東,21.2,96.5,0,0,0,276,0,0,1002.4,1016
188,2021-08-16T03:07:00,1.4,北東,2.3,北東,21.1,96.5,0,0,0,276,0,0,1002.4,1016
189,2021-08-16T03:08:00,1.3,北東,2.3,北東,21.1,96.6,0,0,0,276,0,0,1002.4,1016
190,2021-08-16T03:09:00,1.3,北東,2.3,北東,21.1,96.5,0,0,0,276,0,0,1002.4,1016
191,2021-08-16T03:10:00,1.2,北東,2.3,北東,21.2,96.7,0,0,0,276,0,0,1002.4,1016
192,2021-08-16T03:11:00,1.1,北東,2.3,北東,21.1,96.7,0,0,0,276,0,0,1002.4,1016
193,2021-08-16T03:12:00,1.1,北東,2.3,北東,21.2,96.7,0,0,0,276,0,0,1002.4,1016
194,2021-08-16T03:13:00,1.1,北北東,2.3,北東,21.1,96.6,0,0,0,276,0,0,1002.4,1016
195,2021-08-16T03:14:00,1,北北東,2.3,北東,21.1,96.7,0,0,0,276,0,0,1002.4,1016
196,2021-08-16T03:15:00,0.9,北,2.1,北東,21,96.6,0,0,0,276,0,0,1002.4,1016
197,2021-08-16T03:16:00,0.9,北,2.1,北東,21.1,96.8,0,0,0,276,0,0,1002.4,1016
198,2021-08-16T03:17:00,0.9,北北西,2.1,北東,21.1,96.9,0,0,0,276,0,0,1002.4,1016
199,2021-08-16T03:18:00,0.9,北北西,2.1,北東,21.1,96.7,0,0,0,276,0,0,1002.4,1016
200,2021-08-16T03:19:00,0.8,北北西,1.4,北北東,21.1,96.8,0,0,0,276,0,0,1002.5,1016.1
201,2021-08-16T03:20:00,0.8,北北西,1.4,北北東,21,96.7,0,0,0,276,0,0,1002.5,1016.1
202,2021-08-16T03:21:00,0.8,北北西,1.4,北北東,21.1,96.7,0,0,0,276,0,0,1002.5,1016.1
203,2021-08-16T03:22:00,0.8,北西,1.4,北北東,21,96.8,0,0,0,276,0,0,1002.5,1016.1
204,2021-08-16T03:23:00,0.8,北北西,1.4,北北東,21.1,96.7,0,0,0,276,0,0,1002.4,1016
205,2021-08-16T03:24:00,0.8,北北西,1.8,北東,21.2,96.9,0,0,0,276,0,0,1002.4,1016
206,2021-08-16T03:25:00,0.8,北北西,2.1,北東,21.1,96.9,0,0,0,276,0,0,1002.4,1016
207,2021-08-16T03:26:00,1,北,2.8,北東,21.1,96.8,0,0,0,276,0,0,1002.4,1016
208,2021-08-16T03:27:00,1.1,北,2.8,北東,21.1,96.8,0,0,0,276,0,0,1002.4,1016
209,2021-08-16T03:28:00,1.2,北北東,2.8,北東,21.2,96.8,0,0,0,276,0,0,1002.4,1016
210,2021-08-16T03:29:00,1.4,北北東,2.9,北東,21.2,96.8,0,0,0,276,0,0,1002.4,1016
211,2021-08-16T03:30:00,1.5,北北東,2.9,北東,21.1,96.7,0,0,0,276,0,0,1002.4,1016
212,2021-08-16T03:31:00,1.7,北東,3,北東,21.1,96.7,0,0,0,276,0,0,1002.3,1015.9
213,2021-08-16T03:32:00,1.8,北東,3,北東,21.2,96.7,0,0,0,276,0,0,1002.3,1015.9
214,2021-08-16T03:33:00,1.9,北東,3,北東,21.1,96.6,0,0,0,276,0,0,1002.3,1015.9
215,2021-08-16T03:34:00,2,北東,3.4,北東,21.1,96.5,0,0,0,276,0,0,1002.3,1015.9
216,2021-08-16T03:35:00,2.2,北東,3.4,北東,21.1,96.5,0,0,0,276,0,0,1002.3,1015.9
217,2021-08-16T03:36:00,2.2,北東,3.4,北東,21.1,96.5,0,0,0,276,0,0,1002.3,1015.9
218,2021-08-16T03:37:00,2.2,北東,3.4,北東,21.1,96.5,0,0,0,276,0,0,1002.3,1015.9
219,2021-08-16T03:38:00,2.2,北東,3.4,北東,21.2,96.6,0,0,0,276,0,0,1002.3,1015.9
220,2021-08-16T03:39:00,2.1,北東,3.4,北東,21.1,96.6,0,0,0,276,0,0,1002.3,1015.9
221,2021-08-16T03:40:00,2.1,北東,3.4,北東,21.1,96.5,0,0,0,276,0,0,1002.3,1015.9
222,2021-08-16T03:41:00,2,北東,3.4,北東,21,96.5,0,0,0,276,0,0,1002.3,1015.9
223,2021-08-16T03:42:00,2.1,北東,3.4,北東,21.1,96.5,0,0,0,276,0,0,1002.4,1016
224,2021-08-16T03:43:00,2,北東,3.4,北東,21.1,96.6,0,0,0,276,0,0,1002.4,1016
225,2021-08-16T03:44:00,1.9,北東,3.2,北東,21.1,96.6,0,0,0,276,0,0,1002.4,1016
226,2021-08-16T03:45:00,1.8,北東,3,北東,21,96.5,0,0,0,276,0,0,1002.4,1016
227,2021-08-16T03:46:00,1.6,北東,2.7,北北東,21.1,96.6,0,0,0,276,0,0,1002.5,1016.1
228,2021-08-16T03:47:00,1.4,北北東,2.7,北北東,21.1,96.7,0,0,0,276,0,0,1002.5,1016.1
229,2021-08-16T03:48:00,1.2,北北東,2.7,北北東,21.1,96.7,0,0,0,276,0,0,1002.5,1016.1
230,2021-08-16T03:49:00,1.1,北北東,2.7,北北東,21.1,96.5,0,0,0,276,0,0,1002.5,1016.1
231,2021-08-16T03:50:00,1,北北東,2.7,北北東,21,96.5,0,0,0,276,0,0,1002.6,1016.2
232,2021-08-16T03:51:00,0.8,北北東,2.7,北北東,20.9,96.5,0,0,0,276,0,0,1002.6,1016.2
233,2021-08-16T03:52:00,0.7,北北東,1.9,北東,20.9,96.5,0,0,0,276,0,0,1002.6,1016.2
234,2021-08-16T03:53:00,0.6,北,1.8,北東,20.9,96.6,0,0,0,276,0,0,1002.6,1016.2
235,2021-08-16T03:54:00,0.6,北,2,西北西,20.8,96.6,0,0,0,276,0,0,1002.6,1016.2
236,2021-08-16T03:55:00,0.7,北北西,2,西北西,20.9,96.6,0,0,0,276,0,0,1002.6,1016.2
237,2021-08-16T03:56:00,0.8,北北西,2.4,西北西,20.8,96.6,0,0,0,276,0,0,1002.6,1016.2
238,2021-08-16T03:57:00,0.9,北北西,2.4,西北西,20.8,96.7,0,0,0,276,0,0,1002.6,1016.2
239,2021-08-16T03:58:00,1,北北西,2.4,西北西,20.8,96.8,0,0,0,276,0,0,1002.6,1016.2
240,2021-08-16T03:59:00,1.1,北北西,2.4,西北西,20.7,96.8,0,0,0,276,0,0,1002.7,1016.3
241,2021-08-16T04:00:00,1.2,北西,2.4,西北西,20.6,96.8,0,0,0,276,0,0,1002.7,1016.3
242,2021-08-16T04:01:00,1.3,北西,2.4,西北西,20.6,96.8,0,0,0,276,0,0,1002.7,1016.3
243,2021-08-16T04:02:00,1.3,北西,2.4,西北西,20.7,97.1,0,0,0,276,0,0,1002.7,1016.3
244,2021-08-16T04:03:00,1.4,北西,2.4,西北西,20.7,97.1,0,0,0,276,0,0,1002.6,1016.2
245,2021-08-16T04:04:00,1.4,北西,2.4,西北西,20.7,97,0,0,0,276,0,0,1002.7,1016.3
246,2021-08-16T04:05:00,1.4,北西,2.4,西北西,20.7,97,0,0,0,276,0,0,1002.6,1016.2
247,2021-08-16T04:06:00,1.3,北西,2,北西,20.7,97,0,0,0,276,0,0,1002.7,1016.3
248,2021-08-16T04:07:00,1.4,北西,2,北西,20.7,97,0,0,0,276,0,0,1002.7,1016.3
249,2021-08-16T04:08:00,1.3,北西,2,北西,20.8,97.2,0,0,0,276,0,0,1002.7,1016.3
250,2021-08-16T04:09:00,1.3,西北西,2,北西,20.7,97.2,0,0,0,276,0,0,1002.7,1016.3
251,2021-08-16T04:10:00,1.2,西北西,1.8,西北西,20.7,97,0,0,0,276,0,0,1002.7,1016.3
252,2021-08-16T04:11:00,1.2,西北西,1.8,西北西,20.8,97.1,0,0,0,276,0,0,1002.7,1016.3
253,2021-08-16T04:12:00,1.2,西北西,1.8,西北西,20.8,97.2,0,0,0,276,0,0,1002.7,1016.3
254,2021-08-16T04:13:00,1.1,西北西,1.8,西北西,20.7,97.1,0,0,0,276,0,0,1002.7,1016.3
255,2021-08-16T04:14:00,1.1,西北西,1.8,西北西,20.6,97,0,0,0,276,0,0,1002.7,1016.3
256,2021-08-16T04:15:00,1,西北西,1.8,西北西,20.7,97.1,0,0,0,276,0,0,1002.7,1016.3
257,2021-08-16T04:16:00,0.9,西,1.6,西北西,20.6,97,0,0,0,276,0,0,1002.7,1016.3
258,2021-08-16T04:17:00,0.8,西,1.5,西,20.6,97,0,0,0,276,0,0,1002.6,1016.2
259,2021-08-16T04:18:00,0.7,西,1.4,西,20.7,97.1,0,0,0,276,0,0,1002.6,1016.2
260,2021-08-16T04:19:00,0.6,西北西,1.4,西,20.7,97.1,0,0,0,276,0,0,1002.6,1016.2
261,2021-08-16T04:20:00,0.7,西北西,1.4,西,20.7,97.2,0,0,0,276,0,0,1002.6,1016.2
262,2021-08-16T04:21:00,0.7,西,1.4,西,20.6,97.1,0,0,0,276,0,0,1002.6,1016.2
263,2021-08-16T04:22:00,0.7,西,1.4,西,20.7,97.2,0,0,0,276,0,0,1002.6,1016.2
264,2021-08-16T04:23:00,0.7,西,1.5,西,20.8,97.4,0,0,0,276,0,0,1002.6,1016.2
265,2021-08-16T04:24:00,0.7,西北西,1.5,西,20.8,97.3,0,0,0,276,0,0,1002.6,1016.2
266,2021-08-16T04:25:00,0.7,西北西,1.5,西,20.8,97.3,0,0,0,276,0,0,1002.6,1016.2
267,2021-08-16T04:26:00,0.8,西北西,1.5,西,20.8,97.2,0,0,0,276,0,0,1002.6,1016.2
268,2021-08-16T04:27:00,0.8,西北西,1.7,西北西,20.7,97.1,0,0,0,276,0,0,1002.6,1016.2
269,2021-08-16T04:28:00,0.9,西北西,1.7,西北西,20.7,97.1,0,0,0,276,0,0,1002.6,1016.2
270,2021-08-16T04:29:00,0.9,西北西,1.7,西北西,20.8,97.2,0,0,0,276,0,0,1002.6,1016.2
271,2021-08-16T04:30:00,0.9,西北西,1.7,西北西,20.8,97.2,0,0,0,276,0,0,1002.7,1016.3
272,2021-08-16T04:31:00,0.9,西北西,1.8,西北西,20.8,97.2,0,0,0,276,0,0,1002.7,1016.3
273,2021-08-16T04:32:00,0.9,西北西,1.8,西北西,20.8,97.3,0,0,0,276,0,0,1002.6,1016.2
274,2021-08-16T04:33:00,0.9,北西,1.8,西北西,20.9,97.3,0,0,0,276,0,0,1002.6,1016.2
275,2021-08-16T04:34:00,0.9,北西,1.8,西北西,20.8,97.2,0,0,0,276,0,0,1002.6,1016.2
276,2021-08-16T04:35:00,0.9,北西,1.8,西北西,20.8,97.1,0,0,0,276,0,0,1002.6,1016.2
277,2021-08-16T04:36:00,0.9,北西,1.8,西北西,20.8,97.1,0,0,0,276,0,0,1002.6,1016.2
278,2021-08-16T04:37:00,0.9,北西,1.8,西北西,20.7,97,0,0,0,276,0,0,1002.6,1016.2
279,2021-08-16T04:38:00,0.8,北北西,1.8,西北西,20.8,97,0,0,0,276,0,0,1002.6,1016.2
280,2021-08-16T04:39:00,0.8,北北西,1.8,西北西,20.8,97.1,0,0,0,276,0,0,1002.6,1016.2
281,2021-08-16T04:40:00,0.8,北北西,1.8,西北西,20.8,97.1,0,0,0,276,0,0,1002.6,1016.2
282,2021-08-16T04:41:00,0.7,北北西,1.8,北西,20.8,97.1,0,0,0,276,0,0,1002.6,1016.2
283,2021-08-16T04:42:00,0.7,北北西,1.8,北西,20.8,97.1,0,0,0,276,0,0,1002.7,1016.3
284,2021-08-16T04:43:00,0.7,北北西,1.8,北西,20.8,97.1,0,0,0,276,0,0,1002.6,1016.2
285,2021-08-16T04:44:00,0.7,北北西,1.8,北西,20.8,97,0,0,0,276,0,0,1002.6,1016.2
286,2021-08-16T04:45:00,0.8,北北西,1.9,北西,20.8,97,0,0,0,276,0,0,1002.6,1016.2
287,2021-08-16T04:46:00,0.8,北北西,2,北西,20.8,97,0,0,0,276,0,0,1002.6,1016.2
288,2021-08-16T04:47:00,0.9,北北西,2.1,西北西,20.8,97.1,0,0,0,276,0,0,1002.6,1016.2
289,2021-08-16T04:48:00,0.9,北北西,2.1,西北西,20.8,97,0,0,0,276,0,0,1002.7,1016.3
290,2021-08-16T04:49:00,0.9,北西,2.1,西北西,20.8,97.1,0,0,0,276,0,0,1002.7,1016.3
291,2021-08-16T04:50:00,1,北西,2.1,西北西,20.9,97.2,0,0,0,276,0,0,1002.7,1016.3
292,2021-08-16T04:51:00,1,北西,2.1,西北西,20.8,97.2,0,0,0,276,0,0,1002.7,1016.3
293,2021-08-16T04:52:00,1,北西,2.1,西北西,20.8,97.1,0,0,0,276,0,0,1002.7,1016.3
294,2021-08-16T04:53:00,1,北西,2.1,西北西,20.8,97.1,0,0,0,276,0,0,1002.7,1016.3
295,2021-08-16T04:54:00,1,北西,2.1,西北西,20.8,97,0,0,0,276,0,0,1002.7,1016.3
296,2021-08-16T04:55:00,1,北西,2.1,西北西,20.8,97,0,0,0,276,0,0,1002.7,1016.3
297,2021-08-16T04:56:00,1,北西,2.1,西北西,20.8,97,0,0,0,276,0,0,1002.7,1016.3
298,2021-08-16T04:57:00,0.9,北北西,1.8,北西,20.8,97,0,0,0,276,0,0,1002.7,1016.3
299,2021-08-16T04:58:00,0.9,北北西,1.8,北西,20.8,97,0,0,0,276,0,0,1002.7,1016.3
300,2021-08-16T04:59:00,1,北北西,1.8,北西,20.8,97,0,0,0,276,0,0,1002.7,1016.3
301,2021-08-16T05:00:00,1,北北西,1.8,北西,20.8,97,0,0,0,276,0,0,1002.7,1016.3
302,2021-08-16T05:01:00,1,北北西,1.8,北西,20.8,97.1,0,0,0,276,0,0,1002.7,1016.3
303,2021-08-16T05:02:00,1.1,北北西,1.8,北西,20.8,97,0,0,0,276,0,0,1002.7,1016.3
304,2021-08-16T05:03:00,1.1,北西,1.8,北西,20.8,97,0,0,0,276,0,0,1002.7,1016.3
305,2021-08-16T05:04:00,1.1,北西,1.8,北西,20.7,97,0,0,0,276,0,0,1002.7,1016.3
306,2021-08-16T05:05:00,1.1,北西,1.8,北西,20.7,97,0,0,0,276,0,0,1002.7,1016.3
307,2021-08-16T05:06:00,1.1,北西,1.8,北西,20.7,97,0,0,0,276,0,0,1002.7,1016.3
308,2021-08-16T05:07:00,1.1,北西,1.8,北西,20.8,97.2,0,0,0,276,0,0,1002.7,1016.3
309,2021-08-16T05:08:00,1,北西,1.8,北西,20.7,97.1,0,0,0,276,0,0,1002.7,1016.3
310,2021-08-16T05:09:00,1,北西,1.8,北西,20.8,97.1,0,0,0,276,0,0,1002.8,1016.4
311,2021-08-16T05:10:00,0.9,北西,1.8,北西,20.7,97.1,0,0,0,276,0,0,1002.7,1016.3
312,2021-08-16T05:11:00,0.9,北西,1.8,北西,20.7,97.2,0,0,0,276,0,0,1002.8,1016.4
313,2021-08-16T05:12:00,0.8,北西,1.8,北西,20.7,97.1,0,0,0,276,0,0,1002.8,1016.4
314,2021-08-16T05:13:00,0.8,北西,1.5,北西,20.8,97.3,0,0,0,276,0,0,1002.8,1016.4
315,2021-08-16T05:14:00,0.7,北西,1.3,北西,20.8,97.2,0,0,0,276,0,0,1002.8,1016.4
316,2021-08-16T05:15:00,0.7,北西,1.5,西北西,20.8,97.2,0,0,0,276,0,0,1002.8,1016.4
317,2021-08-16T05:16:00,0.7,北西,1.6,西北西,20.7,97.2,0,0,0,276,0,0,1002.8,1016.4